Location: Équennes
(49.7375°N, 1.9622°E)
Time: 01:18:16
(UTC+00:00)

Cosmos 1656 - Pass Details

Date: 11 October 2023
Orbit: 797 x 849 km, 71.1° (Epoch: 03 December)

Event Time Altitude Azimuth Distance (km) Brightness Sun altitude
Rises 19:56:24 0° 334° (NNW) 3,322 7.5 -27.2°
Reaches altitude 10° 19:58:59 10° 342° (NNW) 2,393 6.5 -27.6°
Enters shadow 20:02:51 35° 21° (NNE) 1,299 4.6 -28.2°
